SCP
-0 0 -0 0 0 -0 0 0 0 0 0 0 0 0 0 0 0 0 0 0 0 0 0 0 0 0 0 0 0 0 0 -0 -0 -0 -0 -0 -0 0 -0 -0 -0 -0 -0
-0 0 -0 0 0 0 -0 -0 0 0 0 0 0 0 0 0 0 0 0 0 0 0 0 0 0 0 0 0 0 0 0 0 0 0 0 0 0 0 0 -0 -0 -0 -0
0 0 0 0 0 0 -0 -0 0 0 0 0 0 0 0 0 0 0 0 0 0 0 0 0 0 0 0 0 0 0 0 0 0 0 0 0 0 0 0 0 -0 -0 -0
-0 -0 -0 -0 -0 -0 0 -0 0 0 0 0 0 0 0 0 0 0 0 0 0 0 0 0 0 0 0 0 0 0 0 0 0 0 0 -0 -0 0 0 0 0 0 0
-0 -0 0 0 0 0 0 0 0 0 0 0 0 0 0 0 0 0 0 0 0 0 0 1 0 0 0 0 0 0 0 0 0 0 -0 -0 0 -0 0 0 0 0 0
0 0 0 0 0 0 0 0 0 0 0 0 0 0 0 0 0 0 0 -0 -0 0 0 0 0 0 0 0 0 0 0 0 0 0 0 0 -0 -0 0 0 0 0 0
0 0 0 0 0 0 0 0 0 0 0 0 0 0 0 0 0 0 0 -0 0 0 0 0 1 0 0 0 0 0 0 0 0 0 0 0 0 0 -0 0 0 0 0
0 0 0 0 0 0 0 0 0 0 0 0 0 0 0 0 0 0 0 0 0 0 0 0 0 0 0 0 0 0 0 0 0 0 0 -0 -0 -0 -0 0 -0 0 0
0 0 0 0 0 0 -0 0 0 0 0 0 0 0 0 0 0 0 0 0 0 0 0 0 0 0 0 0 0 0 0 0 0 0 0 -0 -0 0 0 0 0 -0 0
0 0 0 0 -0 0 -0 0 0 0 0 0 0 0 0 0 0 0 0 0 1 0 0 0 0 0 0 1 0 0 0 0 0 0 0 0 0 0 0 0 0 0 0
0 0 0 0 -0 0 0 0 0 0 0 0 0 0 0 0 0 0 0 0 0 0 0 0 0 1 1 1 0 0 0 0 0 0 0 0 0 0 0 0 0 0 0
0 -0 -0 0 0 0 0 0 0 0 0 0 0 0 -0 0 0 0 0 0 0 0 0 0 0 0 0 0 0 0 0 0 0 0 0 0 0 0 0 0 0 0 0
-0 -0 -0 -0 0 -0 -0 -0 0 0 0 0 -0 0 -0 -0 0 0 0 0 0 0 0 0 0 0 0 0 0 0 0 0 0 0 0 0 0 0 0 0 0 0 0
-0 0 0 -0 -0 -0 -0 -0 0 -0 -0 -0 0 0 -0 -0 -0 0 0 0 0 0 0 0 0 0 0 0 0 0 0 0 0 0 0 0 0 0 0 0 0 0 0
-0 -0 0 -0 -0 -0 -0 -0 -0 -0 -0 -0 -0 0 -0 -0 -0 0 0 0 0 0 0 0 0 0 0 0 0 0 0 0 0 0 0 0 0 0 0 0 0 0 0
-0 -0 -0 -0 -0 -0 -0 -0 0 0 -0 0 0 0 0 0 0 0 -0 0 0 0 0 0 0 0 0 0 0 0 0 0 0 0 0 0 0 0 0 0 0 0 0
0 -0 0 -0 -0 -0 -0 -0 0 0 -0 -0 -0 -0 0 -0 0 0 -0 0 0 0 0 0 0 0 0 0 0 0 0 0 0 0 0 0 0 0 0 0 0 0 0
0 -0 -0 0 0 -0 -0 -0 -0 -0 -0 -0 -0 -0 -0 0 0 0 0 0 0 0 0 0 0 0 0 0 0 0 0 0 0 0 0 0 0 0 0 0 0 0 0
0 0 -0 -0 0 -0 -0 -0 -0 -0 -0 -0 -0 -0 -0 0 0 0 0 0 0 0 0 0 0 0 0 0 0 0 0 0 0 0 0 0 0 0 0 0 0 0 0
0 0 0 0 0 -0 0 0 0 0 0 0 0 0 0 0 0 0 0 0 0 0 0 0 0 0 0 0 0 0 0 0 0 0 0 0 0 0 0 0 0 0 0
0 0 0 0 0 0 0 0 0 0 0 0 0 0 0 0 -0 -0 0 0 0 0 0 0 0 0 0 0 0 0 0 0 0 0 0 0 0 0 0 0 0 0 0
0 0 0 0 0 0 0 0 0 0 0 0 0 0 0 0 -0 0 0 -0 0 0 0 0 0 0 0 0 0 0 0 0 0 0 0 0 0 0 0 0 0 0 0
0 0 0 0 0 0 0 0 0 0 0 0 0 0 0 0 0 0 0 0 0 0 0 0 0 0 0 0 0 0 0 0 0 0 0 0 0 0 0 0 0 0 0
0 0 -0 -0 -0 0 0 0 0 0 0 0 0 0 0 0 0 0 0 0 0 0 0 0 0 0 0 0 0 0 0 0 0 0 0 0 0 0 0 0 0 0 0
0 -0 -0 0 0 0 0 0 -0 0 0 0 0 0 0 0 0 0 0 0 0 0 0 0 0 0 0 0 0 0 0 0 0 0 0 0 0 0 0 0 0 0 0
0 0 0 0 0 0 0 0 0 0 0 0 0 0 0 0 0 0 0 0 0 0 0 0 0 0 0 0 0 0 0 0 0 0 0 0 0 0 0 0 0 0 0
Wind_Speed_500mb
22 20 17 20 21 22 20 20 22 20 21 20 20 22 23 25 26 24 22 33 32 29 25 21 26 27 20 21 23 23 23 24 24 24 24 24 23 24 23 24 23 25 23
31 28 27 26 19 21 21 19 24 22 19 20 22 23 24 24 25 26 24 28 31 34 33 29 27 26 29 27 25 24 25 25 25 26 26 27 28 28 29 28 28 27 29
33 35 29 25 20 24 26 22 21 23 25 26 28 28 26 27 28 30 30 28 28 33 37 34 30 31 30 29 29 22 27 27 26 29 28 31 32 32 32 35 33 32 31
34 34 32 33 32 28 27 24 21 24 27 26 29 26 29 31 33 35 35 32 25 26 30 36 35 31 33 33 31 32 31 30 31 32 34 35 35 34 35 36 37 38 39
28 31 28 23 29 23 27 26 26 33 26 25 27 27 31 32 32 31 39 40 35 28 27 30 39 36 33 34 32 31 33 34 34 35 41 44 44 41 40 39 41 43 44
18 22 20 22 20 24 27 25 23 22 26 27 25 26 29 30 33 29 31 37 37 34 29 29 30 30 34 37 34 34 36 35 33 35 33 37 50 50 48 47 47 48 51
16 18 17 19 22 19 19 24 24 27 30 26 29 29 34 35 33 29 27 29 33 32 30 29 34 27 24 25 27 29 30 31 34 35 34 34 33 46 52 56 56 59 58
7 8 14 15 20 19 26 26 29 29 24 27 22 22 27 30 31 33 29 29 28 27 27 30 27 25 27 28 26 27 28 31 33 34 36 41 40 39 43 38 44 53 67
7 12 14 18 21 24 21 28 21 26 24 27 26 22 12 21 21 22 30 26 25 27 27 24 27 25 23 21 29 28 30 33 30 27 28 33 36 39 39 41 50 50 53
13 16 18 16 19 17 22 17 19 23 26 30 25 25 31 12 11 13 16 14 22 28 33 25 22 23 23 24 28 27 27 29 25 21 19 15 21 26 35 39 41 45 51
11 9 11 12 13 13 13 14 16 17 19 21 22 21 20 28 22 10 13 14 8 15 19 22 24 25 29 24 29 29 24 18 18 14 14 16 22 27 28 30 33 34 33
4 5 7 9 6 4 5 6 9 10 10 8 13 18 22 18 26 28 17 18 13 7 9 8 10 13 15 17 24 23 11 11 10 12 13 16 15 12 16 22 26 23 25
4 5 7 6 3 1 4 5 8 8 8 7 7 10 16 20 18 20 21 20 24 14 7 7 7 3 5 8 10 11 4 1 4 9 12 12 12 14 16 17 18 22 23
8 9 7 10 9 6 5 7 8 8 5 4 7 4 6 9 13 13 12 17 20 18 16 12 11 12 10 6 3 5 6 7 9 9 9 9 9 9 9 11 14 16 17
11 11 11 12 11 11 10 11 10 9 6 5 4 4 7 4 1 4 7 11 21 17 16 12 13 13 9 5 2 7 8 10 13 15 14 16 14 12 13 12 9 9 10
17 16 14 14 14 13 11 13 13 11 11 11 9 7 5 3 8 5 4 9 14 15 14 25 20 15 7 1 3 8 9 10 9 8 9 9 8 11 13 14 15 13 11
20 18 16 15 14 14 14 14 15 14 15 13 12 13 13 11 9 8 4 6 8 12 13 21 23 21 14 6 2 2 5 7 6 3 4 6 8 11 12 13 13 11 12
19 19 22 20 19 18 17 17 17 17 18 18 18 16 19 14 13 11 11 5 5 5 8 14 29 23 18 13 5 1 3 4 2 6 6 8 11 11 13 12 11 10 10
17 18 19 19 18 19 19 20 20 22 23 21 21 21 21 21 21 16 10 8 7 10 5 10 24 20 16 9 4 1 3 4 4 6 9 12 15 14 13 12 11 9 8
16 17 17 17 18 19 19 20 22 24 24 24 24 24 25 25 25 28 23 21 16 13 9 13 17 17 9 6 2 2 4 4 6 10 13 12 9 10 13 13 11 10 9
15 17 16 16 16 15 13 18 19 21 22 24 25 27 28 29 29 27 22 27 24 22 19 17 14 11 11 7 7 6 7 5 6 12 11 8 7 9 13 10 11 12 14
14 15 14 14 14 11 14 16 18 18 19 21 24 26 26 26 27 26 27 26 24 23 20 16 17 17 14 9 9 8 5 6 8 8 5 1 1 2 5 10 15 16 14
15 16 14 15 12 10 12 14 14 16 18 20 21 22 21 23 25 24 25 23 22 19 21 18 18 15 11 8 8 8 6 6 7 5 2 4 7 4 4 9 11 11 11
17 16 15 15 13 10 11 14 14 15 14 15 16 17 18 20 20 21 20 21 22 21 23 20 19 17 13 9 8 5 6 8 8 3 4 6 5 5 3 12 9 9 9
21 15 15 15 15 14 10 11 15 13 11 11 12 12 13 12 14 14 15 15 15 18 17 16 16 16 16 14 11 5 8 11 10 10 12 11 7 8 6 10 14 6 8
23 17 14 16 16 16 13 11 14 10 11 10 10 9 9 9 12 11 13 11 11 10 8 9 12 14 17 18 15 10 9 8 10 7 10 6 12 6 12 13 13 19 12
Wind_Direction_500mb
240 222 220 261 258 245 234 218 207 208 218 211 219 228 227 230 228 231 236 253 242 241 243 245 236 240 234 251 247 244 242 244 246 248 248 254 249 251 255 252 252 245 244
242 235 252 262 245 262 245 231 234 223 226 227 224 231 227 233 242 238 243 258 251 243 242 246 247 245 243 242 248 251 252 248 249 255 255 255 256 257 254 257 256 257 250
246 242 244 239 244 246 243 240 241 236 237 234 233 232 235 243 241 245 240 238 254 255 244 247 248 243 243 250 250 253 262 262 263 262 262 261 258 259 260 256 260 258 258
250 245 251 249 241 247 256 243 246 242 237 240 245 241 242 248 250 248 245 233 242 236 264 251 250 248 248 251 250 244 251 256 257 260 266 265 264 260 262 261 259 261 260
243 246 248 240 241 245 249 256 256 254 250 249 244 247 248 245 249 256 244 236 240 234 236 254 260 250 246 245 248 247 248 255 263 267 262 256 256 256 257 258 259 259 260
241 235 235 235 229 246 249 247 252 263 252 258 258 251 247 248 247 248 238 236 239 246 244 244 252 267 260 255 254 258 253 255 263 273 283 266 262 256 252 254 255 257 260
240 246 239 243 251 245 252 257 255 252 246 250 253 259 252 251 240 241 241 237 238 243 246 247 246 242 244 260 259 258 259 265 268 266 261 273 261 260 254 259 257 260 261
206 231 232 249 254 254 273 260 257 257 261 261 252 256 251 237 239 239 234 238 239 238 241 243 251 250 239 252 262 264 261 262 266 266 261 265 263 256 256 258 260 273 260
260 256 263 258 266 268 267 264 265 258 253 253 245 238 249 245 211 221 223 223 227 225 217 240 241 249 249 246 249 254 265 275 272 277 278 275 269 264 268 267 268 278 272
271 274 274 278 272 257 254 264 263 266 267 261 258 239 234 232 219 199 189 195 223 232 236 234 248 243 242 243 248 255 277 273 269 275 277 285 282 277 269 265 276 279 271
284 307 304 295 278 265 270 279 288 284 281 267 241 241 235 239 229 215 186 178 165 213 228 238 249 241 248 245 255 275 277 266 275 257 287 286 291 285 281 275 276 285 292
3 354 324 305 261 257 294 321 320 322 313 270 248 239 239 235 236 236 228 182 166 138 191 186 208 223 220 239 263 277 279 269 276 283 287 303 299 286 286 281 280 294 298
17 36 36 15 46 77 0 345 348 354 343 315 280 265 250 250 242 229 225 201 196 204 178 141 152 176 268 263 275 305 13 293 301 305 304 303 299 301 304 306 299 297 299
65 65 80 62 67 53 20 0 5 10 7 353 355 326 279 254 234 230 213 196 178 185 201 225 266 258 237 276 2 10 5 352 340 326 322 337 354 356 8 5 344 331 320
57 65 71 72 66 64 55 45 43 44 34 29 27 36 35 39 225 228 212 197 194 176 177 198 204 197 194 187 303 358 9 10 17 15 25 33 39 29 6 8 2 0 4
68 72 73 75 80 78 70 67 46 56 52 55 50 27 33 37 59 359 207 197 193 189 166 190 196 182 157 329 19 8 3 12 17 42 33 30 29 21 10 4 354 347 346
77 81 81 81 85 82 78 68 61 64 65 58 59 62 52 54 51 40 90 155 185 198 189 187 205 181 192 177 150 351 10 0 9 23 61 49 46 34 13 13 19 18 14
84 86 85 84 84 82 75 68 67 65 70 69 64 67 59 49 59 65 51 79 95 153 213 209 182 178 179 172 177 279 36 27 79 75 60 36 17 10 5 355 348 352 346
96 92 90 92 89 81 72 71 71 70 72 76 73 70 72 66 68 66 68 76 91 105 112 177 185 185 167 150 141 32 357 46 48 50 22 7 355 4 1 356 352 351 354
102 95 92 90 89 85 78 76 76 77 79 77 75 75 74 72 70 61 68 67 73 81 114 146 169 168 156 168 164 52 50 54 52 27 354 350 24 31 26 30 16 9 5
106 96 93 93 86 81 84 84 77 78 77 76 74 72 71 68 68 74 73 74 67 79 89 102 122 119 102 82 60 38 38 34 26 2 26 31 36 23 8 0 352 347 341
137 115 104 107 109 102 91 89 92 88 89 87 84 79 75 72 68 66 65 67 82 89 92 92 85 83 73 45 22 25 25 8 6 347 95 223 105 338 9 329 333 330 333
171 157 142 131 129 117 103 95 97 101 95 88 82 78 72 70 68 60 62 67 76 83 90 86 88 83 71 54 12 15 355 326 323 326 15 282 313 308 330 348 346 339 345
199 181 169 154 149 146 122 106 104 103 102 99 93 84 75 67 65 72 66 64 67 75 83 82 85 79 70 54 57 347 347 353 355 7 5 302 312 302 309 289 335 344 353
206 195 183 178 171 162 147 128 117 111 114 108 101 96 87 72 73 74 75 75 73 70 70 64 55 48 36 22 18 28 296 302 291 284 298 297 282 282 285 276 294 325 328
197 188 197 196 190 179 172 165 135 147 138 121 110 106 93 92 88 80 84 85 92 99 96 58 40 29 23 25 23 47 29 338 305 261 292 329 319 291 265 220 241 292 274
Wind_Speed_850mb
22 20 17 20 21 22 20 20 22 20 21 20 20 22 23 25 26 24 22 33 32 29 25 21 26 27 20 21 23 23 23 24 24 24 24 24 23 24 23 24 23 25 23
31 28 27 26 19 21 21 19 24 22 19 20 22 23 24 24 25 26 24 28 31 34 33 29 27 26 29 27 25 24 25 25 25 26 26 27 28 28 29 28 28 27 29
33 35 29 25 20 24 26 22 21 23 25 26 28 28 26 27 28 30 30 28 28 33 37 34 30 31 30 29 29 22 27 27 26 29 28 31 32 32 32 35 33 32 31
34 34 32 33 32 28 27 24 21 24 27 26 29 26 29 31 33 35 35 32 25 26 30 36 35 31 33 33 31 32 31 30 31 32 34 35 35 34 35 36 37 38 39
28 31 28 23 29 23 27 26 26 33 26 25 27 27 31 32 32 31 39 40 35 28 27 30 39 36 33 34 32 31 33 34 34 35 41 44 44 41 40 39 41 43 44
18 22 20 22 20 24 27 25 23 22 26 27 25 26 29 30 33 29 31 37 37 34 29 29 30 30 34 37 34 34 36 35 33 35 33 37 50 50 48 47 47 48 51
16 18 17 19 22 19 19 24 24 27 30 26 29 29 34 35 33 29 27 29 33 32 30 29 34 27 24 25 27 29 30 31 34 35 34 34 33 46 52 56 56 59 58
7 8 14 15 20 19 26 26 29 29 24 27 22 22 27 30 31 33 29 29 28 27 27 30 27 25 27 28 26 27 28 31 33 34 36 41 40 39 43 38 44 53 67
7 12 14 18 21 24 21 28 21 26 24 27 26 22 12 21 21 22 30 26 25 27 27 24 27 25 23 21 29 28 30 33 30 27 28 33 36 39 39 41 50 50 53
13 16 18 16 19 17 22 17 19 23 26 30 25 25 31 12 11 13 16 14 22 28 33 25 22 23 23 24 28 27 27 29 25 21 19 15 21 26 35 39 41 45 51
11 9 11 12 13 13 13 14 16 17 19 21 22 21 20 28 22 10 13 14 8 15 19 22 24 25 29 24 29 29 24 18 18 14 14 16 22 27 28 30 33 34 33
4 5 7 9 6 4 5 6 9 10 10 8 13 18 22 18 26 28 17 18 13 7 9 8 10 13 15 17 24 23 11 11 10 12 13 16 15 12 16 22 26 23 25
4 5 7 6 3 1 4 5 8 8 8 7 7 10 16 20 18 20 21 20 24 14 7 7 7 3 5 8 10 11 4 1 4 9 12 12 12 14 16 17 18 22 23
8 9 7 10 9 6 5 7 8 8 5 4 7 4 6 9 13 13 12 17 20 18 16 12 11 12 10 6 3 5 6 7 9 9 9 9 9 9 9 11 14 16 17
11 11 11 12 11 11 10 11 10 9 6 5 4 4 7 4 1 4 7 11 21 17 16 12 13 13 9 5 2 7 8 10 13 15 14 16 14 12 13 12 9 9 10
17 16 14 14 14 13 11 13 13 11 11 11 9 7 5 3 8 5 4 9 14 15 14 25 20 15 7 1 3 8 9 10 9 8 9 9 8 11 13 14 15 13 11
20 18 16 15 14 14 14 14 15 14 15 13 12 13 13 11 9 8 4 6 8 12 13 21 23 21 14 6 2 2 5 7 6 3 4 6 8 11 12 13 13 11 12
19 19 22 20 19 18 17 17 17 17 18 18 18 16 19 14 13 11 11 5 5 5 8 14 29 23 18 13 5 1 3 4 2 6 6 8 11 11 13 12 11 10 10
17 18 19 19 18 19 19 20 20 22 23 21 21 21 21 21 21 16 10 8 7 10 5 10 24 20 16 9 4 1 3 4 4 6 9 12 15 14 13 12 11 9 8
16 17 17 17 18 19 19 20 22 24 24 24 24 24 25 25 25 28 23 21 16 13 9 13 17 17 9 6 2 2 4 4 6 10 13 12 9 10 13 13 11 10 9
15 17 16 16 16 15 13 18 19 21 22 24 25 27 28 29 29 27 22 27 24 22 19 17 14 11 11 7 7 6 7 5 6 12 11 8 7 9 13 10 11 12 14
14 15 14 14 14 11 14 16 18 18 19 21 24 26 26 26 27 26 27 26 24 23 20 16 17 17 14 9 9 8 5 6 8 8 5 1 1 2 5 10 15 16 14
15 16 14 15 12 10 12 14 14 16 18 20 21 22 21 23 25 24 25 23 22 19 21 18 18 15 11 8 8 8 6 6 7 5 2 4 7 4 4 9 11 11 11
17 16 15 15 13 10 11 14 14 15 14 15 16 17 18 20 20 21 20 21 22 21 23 20 19 17 13 9 8 5 6 8 8 3 4 6 5 5 3 12 9 9 9
21 15 15 15 15 14 10 11 15 13 11 11 12 12 13 12 14 14 15 15 15 18 17 16 16 16 16 14 11 5 8 11 10 10 12 11 7 8 6 10 14 6 8
23 17 14 16 16 16 13 11 14 10 11 10 10 9 9 9 12 11 13 11 11 10 8 9 12 14 17 18 15 10 9 8 10 7 10 6 12 6 12 13 13 19 12
Wind_Direction_850mb
240 222 220 261 258 245 234 218 207 208 218 211 219 228 227 230 228 231 236 253 242 241 243 245 236 240 234 251 247 244 242 244 246 248 248 254 249 251 255 252 252 245 244
242 235 252 262 245 262 245 231 234 223 226 227 224 231 227 233 242 238 243 258 251 243 242 246 247 245 243 242 248 251 252 248 249 255 255 255 256 257 254 257 256 257 250
246 242 244 239 244 246 243 240 241 236 237 234 233 232 235 243 241 245 240 238 254 255 244 247 248 243 243 250 250 253 262 262 263 262 262 261 258 259 260 256 260 258 258
250 245 251 249 241 247 256 243 246 242 237 240 245 241 242 248 250 248 245 233 242 236 264 251 250 248 248 251 250 244 251 256 257 260 266 265 264 260 262 261 259 261 260
243 246 248 240 241 245 249 256 256 254 250 249 244 247 248 245 249 256 244 236 240 234 236 254 260 250 246 245 248 247 248 255 263 267 262 256 256 256 257 258 259 259 260
241 235 235 235 229 246 249 247 252 263 252 258 258 251 247 248 247 248 238 236 239 246 244 244 252 267 260 255 254 258 253 255 263 273 283 266 262 256 252 254 255 257 260
240 246 239 243 251 245 252 257 255 252 246 250 253 259 252 251 240 241 241 237 238 243 246 247 246 242 244 260 259 258 259 265 268 266 261 273 261 260 254 259 257 260 261
206 231 232 249 254 254 273 260 257 257 261 261 252 256 251 237 239 239 234 238 239 238 241 243 251 250 239 252 262 264 261 262 266 266 261 265 263 256 256 258 260 273 260
260 256 263 258 266 268 267 264 265 258 253 253 245 238 249 245 211 221 223 223 227 225 217 240 241 249 249 246 249 254 265 275 272 277 278 275 269 264 268 267 268 278 272
271 274 274 278 272 257 254 264 263 266 267 261 258 239 234 232 219 199 189 195 223 232 236 234 248 243 242 243 248 255 277 273 269 275 277 285 282 277 269 265 276 279 271
284 307 304 295 278 265 270 279 288 284 281 267 241 241 235 239 229 215 186 178 165 213 228 238 249 241 248 245 255 275 277 266 275 257 287 286 291 285 281 275 276 285 292
3 354 324 305 261 257 294 321 320 322 313 270 248 239 239 235 236 236 228 182 166 138 191 186 208 223 220 239 263 277 279 269 276 283 287 303 299 286 286 281 280 294 298
17 36 36 15 46 77 0 345 348 354 343 315 280 265 250 250 242 229 225 201 196 204 178 141 152 176 268 263 275 305 13 293 301 305 304 303 299 301 304 306 299 297 299
65 65 80 62 67 53 20 0 5 10 7 353 355 326 279 254 234 230 213 196 178 185 201 225 266 258 237 276 2 10 5 352 340 326 322 337 354 356 8 5 344 331 320
57 65 71 72 66 64 55 45 43 44 34 29 27 36 35 39 225 228 212 197 194 176 177 198 204 197 194 187 303 358 9 10 17 15 25 33 39 29 6 8 2 0 4
68 72 73 75 80 78 70 67 46 56 52 55 50 27 33 37 59 359 207 197 193 189 166 190 196 182 157 329 19 8 3 12 17 42 33 30 29 21 10 4 354 347 346
77 81 81 81 85 82 78 68 61 64 65 58 59 62 52 54 51 40 90 155 185 198 189 187 205 181 192 177 150 351 10 0 9 23 61 49 46 34 13 13 19 18 14
84 86 85 84 84 82 75 68 67 65 70 69 64 67 59 49 59 65 51 79 95 153 213 209 182 178 179 172 177 279 36 27 79 75 60 36 17 10 5 355 348 352 346
96 92 90 92 89 81 72 71 71 70 72 76 73 70 72 66 68 66 68 76 91 105 112 177 185 185 167 150 141 32 357 46 48 50 22 7 355 4 1 356 352 351 354
102 95 92 90 89 85 78 76 76 77 79 77 75 75 74 72 70 61 68 67 73 81 114 146 169 168 156 168 164 52 50 54 52 27 354 350 24 31 26 30 16 9 5
106 96 93 93 86 81 84 84 77 78 77 76 74 72 71 68 68 74 73 74 67 79 89 102 122 119 102 82 60 38 38 34 26 2 26 31 36 23 8 0 352 347 341
137 115 104 107 109 102 91 89 92 88 89 87 84 79 75 72 68 66 65 67 82 89 92 92 85 83 73 45 22 25 25 8 6 347 95 223 105 338 9 329 333 330 333
171 157 142 131 129 117 103 95 97 101 95 88 82 78 72 70 68 60 62 67 76 83 90 86 88 83 71 54 12 15 355 326 323 326 15 282 313 308 330 348 346 339 345
199 181 169 154 149 146 122 106 104 103 102 99 93 84 75 67 65 72 66 64 67 75 83 82 85 79 70 54 57 347 347 353 355 7 5 302 312 302 309 289 335 344 353
206 195 183 178 171 162 147 128 117 111 114 108 101 96 87 72 73 74 75 75 73 70 70 64 55 48 36 22 18 28 296 302 291 284 298 297 282 282 285 276 294 325 328
197 188 197 196 190 179 172 165 135 147 138 121 110 106 93 92 88 80 84 85 92 99 96 58 40 29 23 25 23 47 29 338 305 261 292 329 319 291 265 220 241 292 274